This is the latest recevied weather packets stored in our database for station/object N1YZ. If no packets are shown the sender has not sent any weather packets the latest 10 day(s).
| Time | Temp. | Humidity | Pressure | Rain* | Wind** | Luminosity | Snow |
|---|---|---|---|---|---|---|---|
| 1777667382 | 17.78° C | 71% | 1033.1 hPa | 0 mm | - | 78 W/m² | - |
| 1777667079 | 18.33° C | 73% | 1032.7 hPa | 0 mm | - | 117 W/m² | - |
| 1777666775 | 18.33° C | 75% | 1033 hPa | 0 mm | - | 97 W/m² | - |
| 1777666472 | 18.89° C | 73% | 1032.9 hPa | 0 mm | - | 128 W/m² | - |
| 1777666169 | 18.89° C | 71% | 1033 hPa | 0 mm | - | 146 W/m² | - |
| 1777665866 | 18.89° C | 61% | 1033.3 hPa | 0 mm | - | 152 W/m² | - |
| 1777665564 | 18.89° C | 70% | 1033.6 hPa | 0 mm | - | 182 W/m² | - |
| 1777665261 | 18.89° C | 64% | 1033.6 hPa | 0 mm | - | 179 W/m² | - |
| 1777664956 | 18.89° C | 64% | 1033.8 hPa | 0 mm | - | 196 W/m² | - |
| 1777664652 | 18.89° C | 68% | 1034 hPa | 0 mm | - | 177 W/m² | - |
| 1777664348 | 18.89° C | 68% | 1034.2 hPa | 0 mm | - | 229 W/m² | - |
| 1777664047 | 18.33° C | 70% | 1034.2 hPa | 0 mm | - | 243 W/m² | - |
| 1777663744 | 17.22° C | 76% | 1034.3 hPa | 0 mm | - | 225 W/m² | - |
| 1777663441 | 17.78° C | 79% | 1034.4 hPa | 0 mm | - | 139 W/m² | - |
| 1777663138 | 17.78° C | 77% | 1034.2 hPa | 0 mm | - | 125 W/m² | - |
| 1777662835 | 17.78° C | 77% | 1033.9 hPa | 0 mm | - | 104 W/m² | - |
| 1777662532 | 17.78° C | 76% | 1034 hPa | 0 mm | - | 85 W/m² | - |
| 1777662228 | 17.78° C | 76% | 1034.2 hPa | 0 mm | - | 82 W/m² | - |
| 1777661923 | 17.78° C | 76% | 1034.1 hPa | 0 mm | - | 90 W/m² | - |
| 1777661620 | 17.78° C | 74% | 1034.3 hPa | 0 mm | - | 99 W/m² | - |
| 1777661315 | 17.78° C | 73% | 1034.2 hPa | 0 mm | - | 107 W/m² | - |
| 1777661011 | 17.78° C | 72% | 1034.1 hPa | 0 mm | - | 117 W/m² | - |
| 1777660707 | 17.78° C | 72% | 1033.7 hPa | 0 mm | - | 122 W/m² | - |
| 1777660405 | 17.78° C | 73% | 1033.9 hPa | 0 mm | - | 107 W/m² | - |
| 1777660101 | 17.78° C | 74% | 1033.8 hPa | 0 mm | - | 121 W/m² | - |
* Rain latest hour (hover to see other rain measurements)
** Current wind speed in m/s (hover to see current wind gust speed)